Terminal Aerodrome Forecast
Issued by NWS Wakefield, VA

Home | Current Version | Previous Version | Text Only | Print | Product List | Glossary On
Versions: 1 2 3 4 5 6 7 8 9 10 11 12 13 14 15
000
FTUS41 KAKQ 302300
TAFORF
TAF
KORF 302320Z 3100/3124 03006KT P6SM SCT250
     FM311400 04009KT P6SM SCT040 SCT250
     FM311800 05012KT P6SM BKN030 OVC080=

USA.gov is the U.S. government's official web portal to all federal, state and local government web resources and services.